{"data":{"norad_id":55349,"intl_designator":"2023-013U","name":"STARLINK-5666","alt_names":[],"object_type":"PAYLOAD","status":"ACTIVE","operator":null,"country":"US","launch_date":"2023-01-26","launch_site_code":"AFETR","launch_vehicle":null,"mission":null,"orbit_class":"UNKNOWN","rcs_meters":null,"size_class":null,"mass_kg":null,"dimensions":null,"purposes":["comms"],"wikipedia_slug":null,"has_3d_model":false,"image_url":null,"decayed_at":null,"tle_current":{"epoch":"2026-05-24T17:24:05.777568Z","epoch_age_seconds":98807,"freshness":"FRESH","line1":"1 55349U 23013U   26144.72506687  .00049017  00000+0  17992-2 0  9993","line2":"2 55349  42.9985 233.8550 0000344 160.2249 199.8616 15.27208023183301","mean_motion":15.27208023,"eccentricity":3.44e-5,"inclination_deg":42.9985,"raan_deg":233.855,"arg_perigee_deg":160.2249,"mean_anomaly_deg":199.8616,"bstar":0.0017992,"rev_number":18330,"period_min":94.289708953421,"perigee_km":483.9270919414,"apogee_km":484.39921819206,"semimajor_km":6862.3001550667,"source":"CELESTRAK","updated_at":"2026-05-25T13:38:17.763284Z"}}}